{"data":{"norad_id":29270,"epoch":"2026-09-19T19:11:38.543424Z","epoch_age_seconds":75148,"freshness":"FRESH","line1":"1 29270U 06032A   26262.79975166  .00000152  00000+0  00000+0 0  9995","line2":"2 29270   1.8989  81.0457 0003361  90.0598 148.6072  1.00271236 48255","mean_motion":1.00271236,"eccentricity":0.0003361,"inclination_deg":1.8989,"raan_deg":81.0457,"arg_perigee_deg":90.0598,"mean_anomaly_deg":148.6072,"bstar":0,"rev_number":4825,"period_min":1436.1047668745,"perigee_km":35772.577248382,"apogee_km":35800.920484662,"semimajor_km":42164.885866522,"source":"CELESTRAK","updated_at":"2026-09-20T09:00:35.127218Z"}}